NPV7592 EKVG-BGGH

Flight info

Callsign NPV7592
Flight time 3h 11m
Altitude 36000
Route MY DCT ING DCT 65N030W 65N040W DCT BAMAM
Aircraft A320/M-SDE3FGHIRWY/LB1

Departure

Time 2026-04-20 16:29
Airport Vágar Airport (EKVG)

Arrival

Time 2026-04-20 19:40
Airport Nuuk International Airport (BGGH)
Time Latitude Longitude Altitude Speed Heading
2026-04-20 15:53 62.06685 -7.27947 279 ft 0 kts 29°
2026-04-20 16:03 62.06684 -7.27947 279 ft 0 kts 29°
2026-04-20 16:15 62.06684 -7.27948 279 ft 0 kts 29°
2026-04-20 16:19 62.06654 -7.27964 285 ft 4 kts 329°
2026-04-20 16:19 62.06641 -7.27933 281 ft 1 kts 286°
2026-04-20 16:20 62.06640 -7.27925 280 ft 1 kts 286°
2026-04-20 16:22 62.06642 -7.27937 279 ft 5 kts 286°
2026-04-20 16:23 62.06644 -7.28070 281 ft 9 kts 233°
2026-04-20 16:23 62.06587 -7.28088 278 ft 8 kts 177°
2026-04-20 16:23 62.06574 -7.28093 280 ft 0 kts 193°
2026-04-20 16:25 62.06574 -7.28092 280 ft 0 kts 193°
2026-04-20 16:25 62.06567 -7.28096 281 ft 7 kts 193°
2026-04-20 16:26 62.06501 -7.28154 283 ft 10 kts 219°
2026-04-20 16:26 62.06521 -7.28370 279 ft 29 kts 298°
2026-04-20 16:26 62.06623 -7.28785 277 ft 33 kts 298°
2026-04-20 16:26 62.06704 -7.29107 269 ft 11 kts 296°
2026-04-20 16:27 62.06729 -7.29206 269 ft 5 kts 241°
2026-04-20 16:27 62.06712 -7.29164 269 ft 8 kts 88°
2026-04-20 16:27 62.06702 -7.29104 269 ft 0 kts 117°
2026-04-20 16:28 62.06695 -7.29073 269 ft 17 kts 117°
2026-04-20 16:28 62.06504 -7.28303 283 ft 98 kts 118°
2026-04-20 16:28 62.06079 -7.26583 357 ft 155 kts 118°
2026-04-20 16:29 62.05559 -7.24550 1314 ft 159 kts 113°
2026-04-20 16:29 62.05025 -7.22438 2133 ft 164 kts 113°
2026-04-20 16:29 62.04526 -7.20118 2471 ft 180 kts 102°
2026-04-20 16:29 62.04272 -7.17397 2809 ft 195 kts 89°
2026-04-20 16:30 62.04241 -7.14368 3093 ft 217 kts 88°
2026-04-20 16:30 62.04171 -7.10976 3430 ft 241 kts 92°
2026-04-20 16:30 62.03796 -7.07379 4102 ft 255 kts 106°
2026-04-20 16:30 62.03025 -7.03981 4923 ft 263 kts 120°
2026-04-20 16:31 62.01845 -7.00894 5760 ft 270 kts 133°
2026-04-20 16:31 62.00357 -6.98481 6541 ft 277 kts 148°
2026-04-20 16:31 61.98566 -6.96858 7314 ft 284 kts 163°
2026-04-20 16:31 61.96600 -6.96191 8055 ft 289 kts 176°
2026-04-20 16:32 61.94574 -6.96411 8798 ft 294 kts 188°
2026-04-20 16:32 61.92587 -6.97561 9533 ft 299 kts 202°
2026-04-20 16:32 61.90739 -6.99617 10272 ft 302 kts 215°
2026-04-20 16:32 61.89122 -7.02499 10949 ft 305 kts 228°
2026-04-20 16:33 61.87829 -7.06077 11622 ft 307 kts 242°
2026-04-20 16:33 61.86933 -7.10179 12294 ft 307 kts 255°
2026-04-20 16:33 61.86479 -7.14580 12961 ft 306 kts 268°
2026-04-20 16:33 61.86490 -7.19077 13624 ft 305 kts 281°
2026-04-20 16:34 61.86964 -7.23429 14289 ft 303 kts 294°
2026-04-20 16:34 61.87871 -7.27432 14862 ft 301 kts 307°
2026-04-20 16:34 61.89152 -7.30904 15473 ft 298 kts 319°
2026-04-20 16:34 61.90729 -7.33705 16089 ft 295 kts 331°
2026-04-20 16:35 61.92504 -7.35956 16473 ft 305 kts 334°
2026-04-20 16:35 61.94389 -7.38282 16610 ft 322 kts 334°
2026-04-20 16:35 61.96376 -7.40743 16753 ft 339 kts 333°
2026-04-20 16:35 61.98455 -7.43333 16873 ft 355 kts 333°
2026-04-20 16:36 62.00631 -7.46053 17017 ft 369 kts 333°
2026-04-20 16:36 62.02883 -7.48881 17143 ft 382 kts 333°
2026-04-20 16:36 62.05209 -7.51808 17280 ft 394 kts 333°
2026-04-20 16:36 62.07577 -7.54911 17463 ft 405 kts 328°
2026-04-20 16:37 62.09751 -7.58823 17825 ft 414 kts 318°
2026-04-20 16:37 62.11614 -7.63575 18253 ft 421 kts 309°
2026-04-20 16:37 62.13099 -7.69033 18691 ft 428 kts 301°
2026-04-20 16:37 62.14419 -7.74752 19070 ft 430 kts 301°
2026-04-20 16:38 62.15740 -7.80505 19431 ft 433 kts 301°
2026-04-20 16:38 62.17070 -7.86312 19779 ft 434 kts 301°
2026-04-20 16:38 62.18399 -7.92123 20134 ft 436 kts 301°
2026-04-20 16:38 62.19732 -7.97970 20466 ft 438 kts 301°
2026-04-20 16:39 62.21070 -8.03851 20784 ft 440 kts 301°
2026-04-20 16:39 62.22411 -8.09763 21104 ft 442 kts 301°
2026-04-20 16:39 62.23756 -8.15696 21425 ft 444 kts 301°
2026-04-20 16:39 62.25108 -8.21669 21739 ft 446 kts 301°
2026-04-20 16:40 62.26462 -8.27667 22041 ft 447 kts 301°
2026-04-20 16:40 62.27814 -8.33699 22327 ft 449 kts 301°
2026-04-20 16:40 62.29167 -8.39769 22613 ft 451 kts 301°
2026-04-20 16:40 62.30525 -8.45863 22894 ft 453 kts 301°
2026-04-20 16:41 62.31887 -8.51984 23158 ft 455 kts 301°
2026-04-20 16:41 62.33254 -8.58139 23419 ft 457 kts 301°
2026-04-20 16:41 62.34621 -8.64321 23689 ft 459 kts 301°
2026-04-20 16:41 62.35977 -8.70472 23956 ft 460 kts 301°
2026-04-20 16:42 62.37349 -8.76707 24229 ft 461 kts 301°
2026-04-20 16:42 62.38718 -8.82947 24559 ft 460 kts 301°
2026-04-20 16:42 62.40078 -8.89183 24936 ft 458 kts 300°
2026-04-20 16:42 62.41427 -8.95386 25301 ft 456 kts 300°
2026-04-20 16:43 62.42774 -9.01590 25672 ft 454 kts 301°
2026-04-20 16:43 62.44107 -9.07745 26050 ft 452 kts 300°
2026-04-20 16:43 62.45434 -9.13898 26450 ft 450 kts 300°
2026-04-20 16:43 62.46752 -9.20014 26853 ft 447 kts 300°
2026-04-20 16:44 62.48047 -9.26039 27236 ft 445 kts 300°
2026-04-20 16:44 62.49345 -9.32096 27614 ft 443 kts 300°
2026-04-20 16:44 62.50638 -9.38136 28035 ft 441 kts 300°
2026-04-20 16:44 62.51917 -9.44142 28437 ft 439 kts 300°
2026-04-20 16:45 62.53196 -9.50153 28834 ft 437 kts 300°
2026-04-20 16:45 62.54463 -9.56123 29217 ft 436 kts 300°
2026-04-20 16:45 62.55722 -9.62081 29631 ft 434 kts 300°
2026-04-20 16:45 62.56972 -9.68015 30052 ft 432 kts 300°
2026-04-20 16:46 62.58214 -9.73930 30448 ft 430 kts 300°
2026-04-20 16:46 62.59444 -9.79817 30805 ft 428 kts 300°
2026-04-20 16:46 62.60669 -9.85690 31146 ft 426 kts 300°
2026-04-20 16:46 62.61891 -9.91558 31457 ft 425 kts 300°
2026-04-20 16:47 62.63105 -9.97409 31783 ft 424 kts 300°
2026-04-20 16:47 62.64314 -10.03249 32089 ft 422 kts 300°
2026-04-20 16:47 62.65515 -10.09064 32421 ft 421 kts 300°
2026-04-20 16:47 62.66710 -10.14857 32746 ft 419 kts 300°
2026-04-20 16:48 62.67901 -10.20634 33060 ft 418 kts 300°
2026-04-20 16:48 62.69083 -10.26416 33363 ft 417 kts 299°
2026-04-20 16:48 62.70254 -10.32169 33704 ft 415 kts 299°
2026-04-20 16:48 62.71417 -10.37903 34031 ft 413 kts 299°
2026-04-20 16:49 62.72576 -10.43616 34343 ft 411 kts 299°
2026-04-20 16:49 62.73730 -10.49317 34590 ft 411 kts 299°
2026-04-20 16:49 62.76050 -10.60792 34633 ft 415 kts 299°
2026-04-20 16:50 62.78368 -10.72338 34640 ft 416 kts 298°
2026-04-20 16:50 62.80658 -10.83837 34635 ft 415 kts 298°
2026-04-20 16:51 62.82953 -10.95420 34649 ft 415 kts 298°
2026-04-20 16:51 62.85240 -11.07014 34634 ft 414 kts 298°
2026-04-20 16:52 62.87511 -11.18617 34642 ft 415 kts 297°
2026-04-20 16:52 62.89783 -11.30261 34653 ft 415 kts 297°
2026-04-20 16:53 62.92042 -11.41923 34645 ft 416 kts 297°
2026-04-20 16:53 62.94289 -11.53643 34650 ft 417 kts 297°
2026-04-20 16:54 62.96536 -11.65379 34661 ft 416 kts 297°
2026-04-20 16:54 62.98777 -11.77107 34663 ft 416 kts 296°
2026-04-20 16:55 63.01001 -11.88858 34668 ft 416 kts 296°
2026-04-20 16:55 63.03217 -12.00630 34663 ft 416 kts 296°
2026-04-20 16:56 63.05419 -12.12404 34670 ft 416 kts 296°
2026-04-20 16:56 63.07599 -12.24200 34670 ft 415 kts 296°
2026-04-20 16:57 63.09779 -12.36000 34674 ft 415 kts 296°
2026-04-20 16:57 63.11961 -12.47807 34673 ft 415 kts 295°
2026-04-20 16:58 63.14124 -12.59641 34678 ft 415 kts 295°
2026-04-20 16:58 63.16254 -12.71428 34673 ft 414 kts 295°
2026-04-20 16:59 63.18394 -12.83283 34673 ft 414 kts 295°
2026-04-20 16:59 63.20525 -12.95140 34675 ft 414 kts 294°
2026-04-20 17:00 63.23696 -13.12970 34678 ft 414 kts 294°
2026-04-20 17:01 63.25793 -13.24872 34672 ft 414 kts 294°
2026-04-20 17:01 63.27885 -13.36796 34670 ft 414 kts 294°
2026-04-20 17:02 63.29965 -13.48734 34664 ft 413 kts 293°
2026-04-20 17:02 63.32035 -13.60680 34664 ft 414 kts 293°
2026-04-20 17:03 63.33750 -13.70625 34664 ft 414 kts 293°
2026-04-20 17:03 63.35806 -13.82615 34660 ft 415 kts 293°
2026-04-20 17:04 63.37863 -13.94651 34666 ft 415 kts 292°
2026-04-20 17:04 63.39897 -14.06717 34654 ft 416 kts 292°
2026-04-20 17:05 63.41917 -14.18809 34657 ft 416 kts 292°
2026-04-20 17:05 63.43941 -14.30920 34640 ft 416 kts 292°
2026-04-20 17:06 63.45955 -14.43057 34647 ft 417 kts 291°
2026-04-20 17:06 63.47963 -14.55235 34646 ft 417 kts 291°
2026-04-20 17:07 63.49963 -14.67444 34649 ft 418 kts 291°
2026-04-20 17:07 63.51958 -14.79687 34649 ft 419 kts 291°
2026-04-20 17:08 63.53945 -14.91976 34651 ft 420 kts 291°
2026-04-20 17:08 63.55901 -15.04226 34651 ft 420 kts 291°
2026-04-20 17:09 63.57863 -15.16586 34650 ft 420 kts 290°
2026-04-20 17:09 63.59828 -15.28956 34648 ft 421 kts 290°
2026-04-20 17:10 63.61780 -15.41370 34650 ft 422 kts 290°
2026-04-20 17:10 63.63723 -15.53820 34649 ft 422 kts 290°
2026-04-20 17:11 63.65655 -15.66335 34353 ft 425 kts 293°
2026-04-20 17:11 63.66623 -15.72634 34567 ft 426 kts 293°
2026-04-20 17:11 63.67593 -15.78972 34675 ft 430 kts 293°
2026-04-20 17:12 63.69582 -15.91906 34670 ft 443 kts 293°
2026-04-20 17:12 63.71604 -16.05202 34663 ft 451 kts 292°
2026-04-20 17:13 63.73624 -16.18634 34665 ft 452 kts 292°
2026-04-20 17:13 63.75636 -16.32097 34659 ft 453 kts 292°
2026-04-20 17:14 63.77636 -16.45591 34655 ft 452 kts 292°
2026-04-20 17:14 63.79617 -16.59093 34654 ft 453 kts 291°
2026-04-20 17:15 63.81570 -16.72634 34655 ft 453 kts 291°
2026-04-20 17:15 63.83470 -16.86244 34662 ft 453 kts 290°
2026-04-20 17:16 63.85345 -16.99897 34665 ft 453 kts 290°
2026-04-20 17:16 63.87212 -17.13546 34676 ft 453 kts 290°
2026-04-20 17:17 63.89066 -17.27203 34674 ft 453 kts 290°
2026-04-20 17:17 63.90910 -17.40870 34673 ft 453 kts 289°
2026-04-20 17:18 63.92747 -17.54551 34674 ft 452 kts 289°
2026-04-20 17:18 63.94569 -17.68232 34671 ft 452 kts 289°
2026-04-20 17:19 63.96377 -17.81955 34671 ft 452 kts 289°
2026-04-20 17:19 63.98167 -17.95680 34671 ft 452 kts 289°
2026-04-20 17:20 63.99950 -18.09429 34675 ft 452 kts 288°
2026-04-20 17:20 64.01721 -18.23193 34676 ft 452 kts 288°
2026-04-20 17:21 64.03478 -18.36974 34686 ft 452 kts 288°
2026-04-20 17:21 64.05221 -18.50780 34688 ft 452 kts 288°
2026-04-20 17:22 64.06952 -18.64599 34692 ft 452 kts 287°
2026-04-20 17:22 64.08663 -18.78407 34700 ft 452 kts 287°
2026-04-20 17:23 64.10363 -18.92242 34699 ft 452 kts 287°
2026-04-20 17:23 64.12042 -19.06104 34699 ft 452 kts 287°
2026-04-20 17:24 64.13711 -19.19977 34695 ft 452 kts 287°
2026-04-20 17:24 64.15376 -19.33863 34696 ft 452 kts 286°
2026-04-20 17:25 64.17029 -19.47776 34694 ft 452 kts 286°
2026-04-20 17:25 64.18662 -19.61692 34694 ft 451 kts 286°
2026-04-20 17:26 64.20285 -19.75614 34687 ft 451 kts 285°
2026-04-20 17:26 64.21890 -19.89545 34677 ft 451 kts 285°
2026-04-20 17:27 64.23466 -20.03410 34676 ft 451 kts 285°
2026-04-20 17:27 64.25038 -20.17395 34668 ft 451 kts 284°
2026-04-20 17:28 64.26603 -20.31390 34664 ft 452 kts 284°
2026-04-20 17:28 64.28148 -20.45398 34669 ft 451 kts 284°
2026-04-20 17:29 64.29690 -20.59409 34672 ft 451 kts 284°
2026-04-20 17:29 64.31217 -20.73402 34676 ft 451 kts 284°
2026-04-20 17:30 64.32731 -20.87426 34674 ft 450 kts 284°
2026-04-20 17:30 64.34227 -21.01464 34674 ft 450 kts 283°
2026-04-20 17:31 64.35708 -21.15501 34673 ft 450 kts 283°
2026-04-20 17:31 64.37170 -21.29554 34671 ft 450 kts 283°
2026-04-20 17:32 64.38623 -21.43608 34666 ft 449 kts 283°
2026-04-20 17:32 64.40050 -21.57570 34666 ft 449 kts 282°
2026-04-20 17:33 64.41472 -21.71627 34666 ft 449 kts 282°
2026-04-20 17:33 64.42884 -21.85706 34671 ft 449 kts 282°
2026-04-20 17:34 64.44280 -21.99812 34673 ft 449 kts 282°
2026-04-20 17:34 64.45665 -22.13908 34679 ft 448 kts 282°
2026-04-20 17:35 64.47041 -22.28010 34678 ft 448 kts 281°
2026-04-20 17:35 64.48395 -22.42118 34685 ft 448 kts 281°
2026-04-20 17:36 64.49723 -22.56251 34682 ft 448 kts 281°
2026-04-20 17:36 64.51044 -22.70326 34680 ft 448 kts 281°
2026-04-20 17:37 64.52354 -22.84479 34678 ft 448 kts 280°
2026-04-20 17:37 64.53653 -22.98638 34684 ft 448 kts 280°
2026-04-20 17:38 64.54939 -23.12811 34687 ft 448 kts 280°
2026-04-20 17:38 64.56214 -23.27003 34689 ft 447 kts 279°
2026-04-20 17:39 64.57468 -23.41194 34689 ft 447 kts 279°
2026-04-20 17:39 64.58708 -23.55295 34688 ft 447 kts 279°
2026-04-20 17:40 64.59942 -23.69480 34687 ft 447 kts 279°
2026-04-20 17:40 64.61152 -23.83670 34684 ft 446 kts 279°
2026-04-20 17:41 64.62344 -23.97860 34679 ft 446 kts 278°
2026-04-20 17:41 64.63523 -24.12041 34679 ft 446 kts 278°
2026-04-20 17:42 64.64696 -24.26232 34680 ft 446 kts 278°
2026-04-20 17:42 64.65853 -24.40446 34682 ft 445 kts 278°
2026-04-20 17:43 64.66993 -24.54652 34682 ft 445 kts 277°
2026-04-20 17:43 64.68125 -24.68869 34686 ft 445 kts 277°
2026-04-20 17:44 64.69233 -24.83092 34681 ft 445 kts 277°
2026-04-20 17:44 64.70338 -24.97314 34679 ft 445 kts 277°
2026-04-20 17:45 64.71422 -25.11541 34682 ft 444 kts 277°
2026-04-20 17:45 64.72483 -25.25704 34677 ft 444 kts 276°
2026-04-20 17:46 64.73369 -25.37625 34677 ft 443 kts 276°
2026-04-20 17:46 64.74408 -25.51755 34674 ft 443 kts 276°
2026-04-20 17:47 64.75439 -25.65984 34672 ft 442 kts 276°
2026-04-20 17:47 64.76448 -25.80188 34669 ft 442 kts 275°
2026-04-20 17:48 64.77448 -25.94410 34652 ft 441 kts 275°
2026-04-20 17:48 64.78432 -26.08611 34658 ft 441 kts 275°
2026-04-20 17:49 64.79403 -26.22738 34664 ft 441 kts 275°
2026-04-20 17:49 64.80362 -26.37048 34656 ft 441 kts 274°
2026-04-20 17:50 64.81293 -26.51177 34649 ft 441 kts 274°
2026-04-20 17:50 64.82218 -26.65404 34656 ft 441 kts 274°
2026-04-20 17:51 64.83141 -26.79644 34655 ft 441 kts 274°
2026-04-20 17:51 64.84051 -26.93898 34658 ft 440 kts 274°
2026-04-20 17:52 64.84938 -27.08147 34646 ft 440 kts 273°
2026-04-20 17:52 64.85815 -27.22386 34650 ft 440 kts 273°
2026-04-20 17:53 64.86674 -27.36649 34646 ft 440 kts 273°
2026-04-20 17:53 64.87514 -27.50908 34644 ft 440 kts 273°
2026-04-20 17:54 64.88343 -27.65184 34642 ft 440 kts 272°
2026-04-20 17:54 64.89168 -27.79475 34635 ft 440 kts 272°
2026-04-20 17:55 64.89974 -27.93792 34625 ft 440 kts 272°
2026-04-20 17:55 64.90765 -28.08108 34621 ft 441 kts 272°
2026-04-20 17:56 64.91542 -28.22436 34618 ft 441 kts 272°
2026-04-20 17:56 64.92306 -28.36711 34615 ft 442 kts 272°
2026-04-20 17:57 64.93064 -28.51116 34613 ft 442 kts 273°
2026-04-20 17:57 64.93803 -28.65528 34614 ft 443 kts 273°
2026-04-20 17:58 64.94528 -28.79971 34608 ft 443 kts 274°
2026-04-20 17:58 64.95242 -28.94493 34616 ft 445 kts 274°
2026-04-20 17:59 64.95938 -29.08907 34601 ft 443 kts 273°
2026-04-20 17:59 64.96623 -29.23383 34570 ft 444 kts 274°
2026-04-20 18:00 64.97302 -29.37805 34575 ft 441 kts 274°
2026-04-20 18:00 64.97969 -29.52244 34589 ft 443 kts 274°
2026-04-20 18:01 64.98613 -29.66796 34577 ft 446 kts 273°
2026-04-20 18:01 64.99241 -29.81419 34602 ft 449 kts 273°
2026-04-20 18:02 64.99859 -29.96253 34631 ft 453 kts 274°
2026-04-20 18:02 65.00401 -30.10911 34626 ft 447 kts 272°
2026-04-20 18:03 65.00868 -30.25470 34582 ft 442 kts 272°
2026-04-20 18:03 65.01306 -30.40123 34577 ft 450 kts 272°
2026-04-20 18:04 65.01743 -30.54857 34573 ft 448 kts 272°
2026-04-20 18:04 65.02193 -30.69640 34548 ft 452 kts 272°
2026-04-20 18:05 65.02808 -30.91863 34572 ft 454 kts 272°
2026-04-20 18:05 65.03211 -31.06721 34593 ft 454 kts 271°
2026-04-20 18:06 65.03598 -31.21652 34572 ft 452 kts 271°
2026-04-20 18:06 65.03961 -31.36477 34554 ft 453 kts 271°
2026-04-20 18:07 65.04316 -31.51377 34556 ft 451 kts 271°
2026-04-20 18:07 65.04650 -31.66290 34553 ft 454 kts 270°
2026-04-20 18:08 65.04974 -31.81237 34552 ft 455 kts 270°
2026-04-20 18:08 65.05292 -31.96229 34553 ft 456 kts 270°
2026-04-20 18:09 65.05599 -32.11233 34554 ft 456 kts 270°
2026-04-20 18:09 65.05875 -32.26272 34552 ft 456 kts 270°
2026-04-20 18:10 65.06139 -32.41320 34550 ft 457 kts 269°
2026-04-20 18:10 65.06390 -32.56293 34552 ft 458 kts 269°
2026-04-20 18:11 65.06627 -32.71393 34554 ft 458 kts 269°
2026-04-20 18:11 65.06853 -32.86515 34557 ft 458 kts 269°
2026-04-20 18:12 65.07069 -33.01619 34560 ft 458 kts 269°
2026-04-20 18:12 65.07257 -33.16621 34564 ft 458 kts 269°
2026-04-20 18:13 65.07427 -33.31687 34567 ft 456 kts 269°
2026-04-20 18:13 65.07588 -33.46748 34564 ft 456 kts 269°
2026-04-20 18:14 65.07742 -33.61762 34565 ft 455 kts 269°
2026-04-20 18:14 65.07864 -33.76783 34561 ft 455 kts 270°
2026-04-20 18:15 65.07983 -33.91764 34565 ft 454 kts 270°
2026-04-20 18:15 65.08086 -34.06610 34564 ft 453 kts 270°
2026-04-20 18:16 65.08164 -34.21525 34545 ft 452 kts 270°
2026-04-20 18:16 65.08234 -34.36433 34547 ft 451 kts 271°
2026-04-20 18:17 65.08282 -34.51356 34523 ft 453 kts 271°
2026-04-20 18:17 65.08325 -34.66312 34508 ft 454 kts 272°
2026-04-20 18:18 65.08360 -34.81375 34502 ft 457 kts 272°
2026-04-20 18:18 65.08380 -34.96488 34497 ft 459 kts 272°
2026-04-20 18:19 65.08374 -35.11572 34503 ft 461 kts 273°
2026-04-20 18:19 65.08353 -35.26825 34498 ft 463 kts 273°
2026-04-20 18:20 65.08325 -35.42115 34492 ft 464 kts 274°
2026-04-20 18:20 65.08270 -35.57448 34496 ft 466 kts 274°
2026-04-20 18:21 65.08198 -35.72851 34497 ft 467 kts 274°
2026-04-20 18:21 65.08115 -35.88276 34492 ft 468 kts 274°
2026-04-20 18:22 65.08015 -36.03725 34499 ft 468 kts 274°
2026-04-20 18:22 65.07898 -36.19157 34497 ft 469 kts 274°
2026-04-20 18:23 65.07769 -36.34627 34498 ft 469 kts 274°
2026-04-20 18:23 65.07620 -36.50102 34507 ft 470 kts 274°
2026-04-20 18:24 65.07459 -36.65495 34512 ft 470 kts 274°
2026-04-20 18:24 65.07279 -36.80955 34502 ft 469 kts 273°
2026-04-20 18:25 65.07082 -36.96460 34508 ft 469 kts 273°
2026-04-20 18:25 65.06867 -37.11938 34505 ft 470 kts 273°
2026-04-20 18:26 65.06646 -37.27406 34503 ft 470 kts 272°
2026-04-20 18:26 65.06402 -37.42895 34505 ft 470 kts 272°
2026-04-20 18:27 65.06146 -37.58365 34503 ft 470 kts 272°
2026-04-20 18:27 65.05869 -37.73742 34500 ft 469 kts 272°
2026-04-20 18:28 65.05580 -37.89175 34496 ft 469 kts 272°
2026-04-20 18:28 65.05285 -38.04615 34493 ft 469 kts 271°
2026-04-20 18:29 65.04967 -38.20033 34494 ft 468 kts 271°
2026-04-20 18:29 65.04622 -38.35439 34491 ft 468 kts 271°
2026-04-20 18:30 65.04324 -38.48230 34495 ft 468 kts 271°
2026-04-20 18:30 65.03961 -38.63605 34497 ft 467 kts 271°
2026-04-20 18:31 65.03587 -38.78942 34503 ft 466 kts 270°
2026-04-20 18:31 65.03190 -38.94278 34511 ft 466 kts 270°
2026-04-20 18:32 65.02776 -39.09575 34511 ft 466 kts 269°
2026-04-20 18:32 65.02350 -39.24863 34513 ft 465 kts 269°
2026-04-20 18:33 65.01906 -39.40127 34521 ft 465 kts 269°
2026-04-20 18:33 65.01446 -39.55395 34903 ft 464 kts 269°
2026-04-20 18:34 65.01214 -39.62986 35232 ft 461 kts 268°
2026-04-20 18:34 65.00978 -39.70527 35562 ft 459 kts 268°
2026-04-20 18:34 65.00742 -39.77955 35860 ft 457 kts 268°
2026-04-20 18:34 65.00500 -39.85422 36160 ft 455 kts 268°
2026-04-20 18:35 65.00251 -39.92870 36429 ft 453 kts 268°
2026-04-20 18:35 65.00000 -40.00308 36520 ft 452 kts 268°
2026-04-20 18:35 64.99513 -40.15096 36522 ft 451 kts 267°
2026-04-20 18:36 64.99029 -40.29842 36524 ft 449 kts 267°
2026-04-20 18:36 64.98533 -40.44567 36526 ft 449 kts 267°
2026-04-20 18:37 64.98009 -40.59253 36526 ft 448 kts 267°
2026-04-20 18:37 64.97468 -40.73920 36527 ft 448 kts 266°
2026-04-20 18:38 64.96924 -40.88589 36527 ft 448 kts 266°
2026-04-20 18:38 64.96361 -41.03244 36537 ft 448 kts 266°
2026-04-20 18:39 64.95787 -41.17805 36538 ft 448 kts 266°
2026-04-20 18:39 64.95193 -41.32440 36545 ft 448 kts 266°
2026-04-20 18:40 64.94590 -41.47059 36545 ft 447 kts 265°
2026-04-20 18:40 64.93975 -41.61669 36546 ft 447 kts 265°
2026-04-20 18:41 64.93344 -41.76254 36546 ft 446 kts 265°
2026-04-20 18:41 64.92696 -41.90799 36550 ft 446 kts 265°
2026-04-20 18:42 64.92032 -42.05336 36549 ft 445 kts 265°
2026-04-20 18:42 64.91364 -42.19771 36558 ft 445 kts 265°
2026-04-20 18:43 64.90678 -42.34253 36556 ft 445 kts 264°
2026-04-20 18:43 64.89981 -42.48718 36559 ft 444 kts 264°
2026-04-20 18:44 64.89265 -42.63166 36558 ft 444 kts 264°
2026-04-20 18:44 64.88536 -42.77608 36555 ft 444 kts 264°
2026-04-20 18:45 64.87805 -42.92019 36559 ft 442 kts 264°
2026-04-20 18:45 64.87061 -43.06379 36554 ft 441 kts 264°
2026-04-20 18:46 64.86290 -43.20695 36550 ft 440 kts 264°
2026-04-20 18:46 64.85502 -43.34972 36514 ft 439 kts 263°
2026-04-20 18:47 64.84717 -43.49201 36509 ft 439 kts 263°
2026-04-20 18:47 64.83912 -43.63398 36484 ft 438 kts 263°
2026-04-20 18:48 64.83102 -43.77547 36472 ft 437 kts 263°
2026-04-20 18:48 64.82286 -43.91684 36463 ft 436 kts 263°
2026-04-20 18:49 64.81446 -44.05770 36442 ft 435 kts 262°
2026-04-20 18:49 64.80599 -44.19816 36415 ft 434 kts 262°
2026-04-20 18:50 64.79748 -44.33833 36393 ft 433 kts 262°
2026-04-20 18:50 64.78888 -44.47717 36386 ft 432 kts 262°
2026-04-20 18:51 64.78008 -44.61652 36365 ft 431 kts 262°
2026-04-20 18:51 64.77108 -44.75557 36343 ft 431 kts 262°
2026-04-20 18:52 64.76202 -44.89413 36324 ft 430 kts 261°
2026-04-20 18:52 64.75284 -45.03241 36301 ft 429 kts 261°
2026-04-20 18:53 64.74364 -45.17038 36293 ft 428 kts 261°
2026-04-20 18:53 64.73432 -45.30780 36271 ft 427 kts 261°
2026-04-20 18:54 64.72486 -45.44501 36252 ft 427 kts 261°
2026-04-20 18:54 64.71527 -45.58202 36240 ft 427 kts 260°
2026-04-20 18:55 64.70552 -45.71878 36234 ft 426 kts 260°
2026-04-20 18:55 64.69563 -45.85553 36227 ft 426 kts 259°
2026-04-20 18:56 64.68580 -45.99122 36220 ft 426 kts 260°
2026-04-20 18:56 64.67578 -46.12766 36214 ft 425 kts 259°
2026-04-20 18:57 64.66560 -46.26388 36203 ft 425 kts 259°
2026-04-20 18:57 64.65528 -46.40005 36195 ft 426 kts 259°
2026-04-20 18:58 64.64481 -46.53609 36184 ft 425 kts 258°
2026-04-20 18:58 64.63420 -46.67177 36177 ft 425 kts 258°
2026-04-20 18:59 64.62365 -46.80634 36168 ft 424 kts 258°
2026-04-20 18:59 64.61285 -46.94163 36156 ft 424 kts 258°
2026-04-20 19:00 64.60193 -47.07657 36149 ft 424 kts 258°
2026-04-20 19:00 64.59091 -47.21149 36136 ft 423 kts 257°
2026-04-20 19:01 64.57983 -47.34628 36124 ft 423 kts 257°
2026-04-20 19:01 64.56856 -47.48051 36115 ft 422 kts 257°
2026-04-20 19:02 64.55712 -47.61449 36111 ft 423 kts 257°
2026-04-20 19:02 64.54569 -47.74860 36098 ft 422 kts 257°
2026-04-20 19:03 64.53422 -47.88154 36089 ft 422 kts 256°
2026-04-20 19:03 64.52248 -48.01512 36083 ft 422 kts 256°
2026-04-20 19:04 64.51060 -48.14880 36076 ft 422 kts 256°
2026-04-20 19:04 64.49870 -48.28232 36081 ft 422 kts 256°
2026-04-20 19:05 64.48664 -48.41555 36087 ft 422 kts 255°
2026-04-20 19:05 64.47436 -48.54889 36079 ft 423 kts 255°
2026-04-20 19:06 64.46205 -48.68232 36029 ft 424 kts 255°
2026-04-20 19:06 64.45597 -48.74824 35775 ft 424 kts 255°
2026-04-20 19:06 64.45098 -48.81570 35097 ft 430 kts 262°
2026-04-20 19:07 64.44894 -48.88555 34152 ft 437 kts 263°
2026-04-20 19:07 64.44725 -48.95590 33315 ft 438 kts 264°
2026-04-20 19:07 64.44569 -49.02624 32408 ft 439 kts 264°
2026-04-20 19:07 64.44412 -49.09729 31266 ft 444 kts 264°
2026-04-20 19:08 64.44251 -49.16869 30157 ft 445 kts 264°
2026-04-20 19:08 64.43890 -49.31240 27399 ft 450 kts 262°
2026-04-20 19:08 64.43692 -49.38512 26001 ft 456 kts 262°
2026-04-20 19:09 64.43481 -49.45902 24672 ft 464 kts 261°
2026-04-20 19:09 64.43263 -49.53423 23352 ft 472 kts 261°
2026-04-20 19:09 64.43048 -49.60963 21882 ft 466 kts 261°
2026-04-20 19:09 64.42845 -49.68370 20578 ft 455 kts 261°
2026-04-20 19:10 64.42648 -49.75592 19366 ft 445 kts 261°
2026-04-20 19:10 64.42443 -49.82702 18195 ft 439 kts 261°
2026-04-20 19:10 64.42235 -49.89652 16988 ft 428 kts 261°
2026-04-20 19:10 64.42027 -49.96442 15847 ft 418 kts 261°
2026-04-20 19:11 64.41822 -50.03061 14901 ft 407 kts 261°
2026-04-20 19:11 64.41611 -50.09591 14245 ft 405 kts 260°
2026-04-20 19:11 64.41401 -50.16027 13608 ft 399 kts 260°
2026-04-20 19:11 64.41194 -50.22384 12967 ft 394 kts 260°
2026-04-20 19:12 64.40983 -50.28673 12366 ft 390 kts 260°
2026-04-20 19:12 64.40770 -50.34890 11771 ft 386 kts 260°
2026-04-20 19:12 64.40560 -50.41033 11288 ft 377 kts 259°
2026-04-20 19:12 64.40365 -50.46927 11164 ft 357 kts 259°
2026-04-20 19:13 64.40188 -50.52423 11029 ft 328 kts 259°
2026-04-20 19:13 64.40024 -50.57452 10905 ft 300 kts 258°
2026-04-20 19:13 64.39869 -50.62116 10736 ft 286 kts 257°
2026-04-20 19:13 64.39711 -50.66634 10544 ft 278 kts 257°
2026-04-20 19:14 64.39539 -50.71055 10298 ft 275 kts 256°
2026-04-20 19:14 64.39363 -50.75378 10066 ft 273 kts 256°
2026-04-20 19:14 64.39196 -50.79699 9897 ft 265 kts 256°
2026-04-20 19:14 64.39048 -50.83846 9769 ft 253 kts 255°
2026-04-20 19:15 64.38902 -50.87837 9639 ft 248 kts 256°
2026-04-20 19:15 64.38747 -50.91791 9511 ft 245 kts 254°
2026-04-20 19:15 64.38604 -50.95579 9379 ft 229 kts 254°
2026-04-20 19:15 64.38471 -50.99162 9239 ft 217 kts 253°
2026-04-20 19:16 64.38389 -51.01455 9141 ft 207 kts 254°
2026-04-20 19:16 64.38264 -51.04753 9012 ft 203 kts 252°
2026-04-20 19:16 64.38153 -51.07865 8805 ft 188 kts 251°
2026-04-20 19:16 64.38042 -51.10798 8553 ft 182 kts 252°
2026-04-20 19:17 64.37923 -51.13715 8292 ft 181 kts 249°
2026-04-20 19:17 64.37802 -51.16565 8035 ft 175 kts 249°
2026-04-20 19:17 64.37697 -51.19267 7799 ft 166 kts 248°
2026-04-20 19:17 64.37614 -51.21845 7615 ft 161 kts 250°
2026-04-20 19:18 64.37667 -51.24445 7408 ft 161 kts 258°
2026-04-20 19:18 64.37900 -51.27070 7170 ft 175 kts 269°
2026-04-20 19:18 64.38267 -51.29825 6900 ft 181 kts 269°
2026-04-20 19:18 64.38657 -51.32618 6651 ft 185 kts 270°
2026-04-20 19:19 64.39052 -51.35474 6398 ft 190 kts 271°
2026-04-20 19:19 64.39462 -51.38419 6101 ft 193 kts 273°
2026-04-20 19:19 64.39880 -51.41389 5755 ft 194 kts 273°
2026-04-20 19:19 64.40274 -51.44251 5456 ft 177 kts 265°
2026-04-20 19:20 64.40332 -51.47030 5051 ft 171 kts 248°
2026-04-20 19:20 64.40027 -51.49539 4831 ft 153 kts 230°
2026-04-20 19:20 64.39500 -51.51503 4666 ft 137 kts 217°
2026-04-20 19:20 64.38846 -51.52952 4550 ft 128 kts 205°
2026-04-20 19:21 64.38079 -51.53918 4372 ft 125 kts 192°
2026-04-20 19:21 64.37238 -51.54545 4175 ft 129 kts 192°
2026-04-20 19:21 64.36387 -51.55178 3990 ft 130 kts 191°
2026-04-20 19:21 64.35521 -51.55823 3790 ft 131 kts 191°
2026-04-20 19:22 64.34647 -51.56481 3614 ft 129 kts 191°
2026-04-20 19:22 64.33785 -51.57116 3416 ft 131 kts 191°
2026-04-20 19:22 64.32917 -51.57761 3215 ft 132 kts 191°
2026-04-20 19:22 64.32053 -51.58400 3038 ft 131 kts 191°
2026-04-20 19:23 64.31187 -51.59038 2843 ft 131 kts 191°
2026-04-20 19:23 64.30325 -51.59678 2625 ft 129 kts 191°
2026-04-20 19:23 64.29472 -51.60304 2450 ft 130 kts 192°
2026-04-20 19:23 64.28597 -51.60948 2254 ft 133 kts 192°
2026-04-20 19:24 64.27712 -51.61601 2071 ft 135 kts 193°
2026-04-20 19:24 64.26816 -51.62258 1858 ft 134 kts 193°
2026-04-20 19:24 64.25909 -51.62923 1667 ft 139 kts 193°
2026-04-20 19:24 64.24991 -51.63601 1438 ft 139 kts 192°
2026-04-20 19:25 64.24074 -51.64275 1225 ft 138 kts 192°
2026-04-20 19:25 64.23169 -51.64939 1008 ft 134 kts 193°
2026-04-20 19:25 64.22299 -51.65596 800 ft 128 kts 194°
2026-04-20 19:25 64.21460 -51.66237 641 ft 126 kts 193°
2026-04-20 19:26 64.20621 -51.66826 417 ft 126 kts 193°
2026-04-20 19:26 64.19789 -51.67417 309 ft 128 kts 197°
2026-04-20 19:26 64.18897 -51.68110 428 ft 149 kts 204°
2026-04-20 19:26 64.17881 -51.69076 1144 ft 164 kts 199°
2026-04-20 19:27 64.16855 -51.70189 2214 ft 165 kts 200°
2026-04-20 19:27 64.15864 -51.71848 2611 ft 200 kts 226°
2026-04-20 19:27 64.15502 -51.75161 3018 ft 237 kts 264°
2026-04-20 19:27 64.16043 -51.78829 3043 ft 250 kts 291°
2026-04-20 19:28 64.17035 -51.82271 3220 ft 261 kts 299°
2026-04-20 19:28 64.18137 -51.85671 4020 ft 270 kts 297°
2026-04-20 19:28 64.19243 -51.89174 4786 ft 274 kts 294°
2026-04-20 19:28 64.20306 -51.92802 5291 ft 279 kts 291°
2026-04-20 19:29 64.21332 -51.96542 5410 ft 276 kts 289°
2026-04-20 19:29 64.22489 -52.00139 5423 ft 289 kts 309°
2026-04-20 19:29 64.24259 -52.02515 5429 ft 302 kts 343°
2026-04-20 19:29 64.26327 -52.02840 5429 ft 296 kts 17°
2026-04-20 19:30 64.28167 -52.01133 5429 ft 276 kts 48°
2026-04-20 19:30 64.29611 -51.98366 5430 ft 269 kts 54°
2026-04-20 19:30 64.31020 -51.95550 5430 ft 267 kts 54°
2026-04-20 19:30 64.32430 -51.92714 5426 ft 268 kts 54°
2026-04-20 19:31 64.33842 -51.89875 5426 ft 269 kts 53°
2026-04-20 19:31 64.35244 -51.87091 5411 ft 264 kts 53°
2026-04-20 19:31 64.36630 -51.84317 5403 ft 264 kts 54°
2026-04-20 19:31 64.38042 -51.81488 5426 ft 283 kts 52°
2026-04-20 19:32 64.39534 -51.78502 5416 ft 279 kts 51°
2026-04-20 19:32 64.40949 -51.75611 5419 ft 262 kts 59°
2026-04-20 19:32 64.41969 -51.72437 5412 ft 233 kts 75°
2026-04-20 19:32 64.42557 -51.69208 5415 ft 205 kts 90°
2026-04-20 19:33 64.42795 -51.66093 5316 ft 188 kts 102°
2026-04-20 19:33 64.42787 -51.63253 5186 ft 167 kts 111°
2026-04-20 19:33 64.42592 -51.60765 5087 ft 153 kts 120°
2026-04-20 19:33 64.42270 -51.58434 5005 ft 152 kts 121°
2026-04-20 19:34 64.41944 -51.56100 4925 ft 153 kts 121°
2026-04-20 19:34 64.41473 -51.53994 4838 ft 143 kts 141°
2026-04-20 19:34 64.40669 -51.52813 4769 ft 136 kts 164°
2026-04-20 19:34 64.39738 -51.52927 4640 ft 139 kts 194°
2026-04-20 19:35 64.38811 -51.53646 4520 ft 141 kts 186°
2026-04-20 19:35 64.37865 -51.54205 4326 ft 140 kts 190°
2026-04-20 19:35 64.36929 -51.54846 4125 ft 141 kts 190°
2026-04-20 19:35 64.35985 -51.55516 3915 ft 143 kts 191°
2026-04-20 19:36 64.35028 -51.56213 3717 ft 145 kts 192°
2026-04-20 19:36 64.34064 -51.56917 3515 ft 146 kts 191°
2026-04-20 19:36 64.33089 -51.57632 3293 ft 147 kts 192°
2026-04-20 19:36 64.32112 -51.58351 3067 ft 148 kts 192°
2026-04-20 19:37 64.31137 -51.59072 2874 ft 148 kts 193°
2026-04-20 19:37 64.30149 -51.59806 2639 ft 150 kts 192°
2026-04-20 19:37 64.29148 -51.60541 2415 ft 151 kts 192°
2026-04-20 19:37 64.28132 -51.61282 2179 ft 155 kts 193°
2026-04-20 19:38 64.27137 -51.62021 1963 ft 143 kts 194°
2026-04-20 19:38 64.26199 -51.62712 1746 ft 140 kts 193°
2026-04-20 19:38 64.25271 -51.63396 1530 ft 139 kts 192°
2026-04-20 19:38 64.24348 -51.64073 1321 ft 139 kts 192°
2026-04-20 19:39 64.23429 -51.64748 1089 ft 139 kts 194°
2026-04-20 19:39 64.22517 -51.65418 881 ft 137 kts 195°
2026-04-20 19:39 64.21613 -51.66080 672 ft 135 kts 197°
2026-04-20 19:39 64.20708 -51.66744 470 ft 137 kts 197°
2026-04-20 19:40 64.19791 -51.67414 307 ft 137 kts 200°
2026-04-20 19:40 64.18990 -51.68011 282 ft 86 kts 198°
2026-04-20 19:40 64.18687 -51.68227 282 ft 17 kts 182°
2026-04-20 19:40 64.18648 -51.68126 284 ft 5 kts 111°
2026-04-20 19:41 64.18642 -51.68088 281 ft 1 kts 111°
2026-04-20 19:41 64.18641 -51.68087 281 ft 0 kts 111°
2026-04-20 19:41 64.18641 -51.68084 281 ft 2 kts 109°
2026-04-20 19:41 64.18633 -51.68030 281 ft 2 kts 108°
2026-04-20 19:42 64.18619 -51.67928 286 ft 7 kts 108°
2026-04-20 19:42 64.18610 -51.67861 281 ft 2 kts 108°
2026-04-20 19:42 64.18587 -51.67808 281 ft 6 kts 144°
2026-04-20 19:42 64.18569 -51.67781 283 ft 1 kts 147°
2026-04-20 19:43 64.18560 -51.67767 281 ft 1 kts 148°
2026-04-20 19:43 64.18558 -51.67765 281 ft 0 kts 148°